Location: ?????
(31.8092°N, 35.2590°E)
Time: 04:22:08
(UTC+00:00)

Cosmos 2360 Rocket - Pass Details

Date: 20 October 2021
Orbit: 832 x 846 km, 71.0° (Epoch: 07 December)

Event Time Altitude Azimuth Distance (km) Brightness Sun altitude
Rises 02:45:49 0° 347° (NNW) 3,408 5.2 -13.5°
Reaches altitude 10° 02:48:24 10° 354° (N) 2,471 4.5 -12.9°
Maximum altitude 02:53:48 43° 66° (ENE) 1,164 3.4 -11.8°
Drops below altitude 10° 02:59:09 10° 137° (SE) 2,458 5.4 -10.6°
Sets 03:01:42 0° 144° (SE) 3,388 6.0 -10.1°
